Flag for Canada Weather past 2 weeks in Portage la Prairie, Manitoba, Canada

Now
66 °F

Partly sunny.


Feels Like: 66 °F
Forecast: N/A
Wind: 7 mph from Southwest

Location: Portage Southport A

Current Time: Oct 23, 2014 at 4:33:45 PM

Latest Report: Oct 23, 2014 at 4:00 PM


Visibility: 15 mi

Pressure: 29.75 "Hg

Humidity: 37%

Dew point: 39 °F

Location of Portage la PrairieLocation

Historic Weather in Portage la Prairie — Graph

°F

Portage la Prairie temperature yesterday

Maximum temperature yesterday: 64 °F (at 2:00 PM)
Minimum temperature yesterday: 52 °F (at 9:00 AM)
Average temperature yesterday: 57 °F

Past Weeks' High & Low Weather Summary

 TemperatureHumidityPressure
High75 °F (Oct 15, 3:00 PM)100% (Oct 20, 7:00 AM)30.33 "Hg (Oct 20, 7:00 AM)
Low27 °F (Oct 10, 8:00 AM)29% (Oct 15, 3:00 PM)29.51 "Hg (Oct 16, 9:00 AM)
Average49 °F70%29.96 "Hg
* Reported Oct 8 3:00 PM — Oct 23 3:00 PM, Portage la Prairie, Weather by CustomWeather, © 2014

Note: Actual official high and low records may vary slightly from our data, if they occured in-between our weather recording intervals... More about our weather records

Advertising

Portage la Prairie weather history for previous 24 hours

 ConditionsComfort  
Time TempWeatherWind HumidityBarometerVisibility
3:00 PM
Oct 23
63 °FScattered clouds.7 mph45%29.76 "Hg15 mi
2:00 PM61 °FScattered clouds.13 mph52%29.77 "Hg15 mi
1:00 PM59 °FScattered clouds.12 mph59%29.79 "Hg15 mi
12:00 PM57 °FPassing clouds.13 mph63%29.79 "Hg15 mi
11:00 AM54 °FPassing clouds.15 mph67%29.80 "Hg15 mi
10:00 AM50 °FScattered clouds.12 mph76%29.79 "Hg15 mi
9:00 AM50 °FPassing clouds.10 mph82%29.78 "Hg15 mi
8:00 AM50 °FPassing clouds.12 mph88%29.78 "Hg15 mi
7:00 AM52 °FPassing clouds.13 mph82%29.78 "Hg15 mi
6:00 AM52 °FPassing clouds.10 mph82%29.78 "Hg15 mi
10:00 PM
Oct 22
54 °FPassing clouds.10 mph72%29.75 "Hg15 mi
9:00 PM57 °FPassing clouds.12 mph67%29.74 "Hg15 mi
8:00 PM54 °FPassing clouds.9 mph82%29.74 "Hg15 mi
7:00 PM57 °FPartly sunny.9 mph72%29.73 "Hg15 mi
6:00 PM57 °FPartly sunny.10 mph72%29.73 "Hg15 mi
5:00 PM57 °FPartly sunny.9 mph82%29.70 "Hg15 mi
4:00 PM63 °FSprinkles. Mostly cloudy.10 mph64%29.70 "Hg15 mi
Weather by CustomWeather, © 2014

See weather overviewHow to use our weather pages